Location: Aalen
(48.8330°N, 10.1000°E)
Time: 19:16:31
(UTC+02:00)

UNISAT 6 - Pass Details

Date: 01 April 2023
Orbit: 599 x 680 km, 97.7° (Epoch: 04 June)

Event Time Altitude Azimuth Distance (km) Brightness Sun altitude
Rises 20:35:53 0° 360° (N) 3,051 ? -8.2°
Reaches altitude 10° 20:38:51 10° 340° (NNW) 2,135 ? -8.7°
Maximum altitude 20:41:45 17° 301° (WNW) 1,729 ? -9.1°
Drops below altitude 10° 20:44:38 10° 263° (W) 2,126 ? -9.6°
Sets 20:47:35 0° 243° (WSW) 3,031 ? -10.0°
